Escatawpa, MS

7:05 AM CST on February 24, 2017 (GMT -0600)
Lott International

Weather History for KPQL - July, 2013

Change the Weather History Date:

Thursday, July 18, 2013

  Actual Average Record
Temperature  
Mean Temperature 81 °F -  
Max Temperature 90 °F 89 °F 101 °F (1981)
Min Temperature 73 °F 73 °F 67 °F (1987)
Cooling Degree Days 16    
Growing Degree Days 31 (Base 50)    
Moisture  
Dew Point 74 °F    
Average Humidity 81    
Maximum Humidity 100    
Minimum Humidity 58    
Precipitation  
Precipitation 0.00 in - - ()
Sea Level Pressure  
Sea Level Pressure 30.09 in    
Wind  
Wind Speed 2 mph (ENE)    
Max Wind Speed 9 mph    
Max Gust Speed -    
Visibility 9 miles    
Events Thunderstorm    
Averages and records for this station are not official NWS values.
T = Trace of Precipitation, MM = Missing Value Source: NWS Daily Summary

Daily Weather History Graph

Daily Weather History Graph

Search for Another Location

Airport or City:

Trip Planner

Search our weather history database for the weather conditions in past years. The results will help you decide how hot, cold, wet, or windy it might be!

Date:

Astronomy

Jul. 18, 2013 Rise Set
Actual Time 6:04 AM CDT 7:56 PM CDT
Civil Twilight 5:37 AM CDT 8:23 PM CDT
Nautical Twilight 5:04 AM CDT 8:55 PM CDT
Astronomical Twilight 4:30 AM CDT 9:30 PM CDT
Moon 3:55 PM CDT (7/18) 1:50 AM CDT (7/18)
Length of Visible Light 14h 46m
Length of Day
13h 52m
Waxing Gibbous, 77% of the Moon is Illuminated
Jul 18
Waxing Gibbous
Jul 22
Full
Jul 29
Last Quarter
Aug 6
New
Aug 14
First Quarter

Hourly Weather History & Observations

Time (CDT) Temp. Heat Index Dew Point Humidity Pressure Visibility Wind Dir Wind Speed Gust Speed Precip Events Conditions
12:53 AM 75.9 °F - 75.0 °F 97% 30.14 in 10.0 mi Calm Calm - N/A   Mostly Cloudy
1:53 AM 73.9 °F - 73.9 °F 100% 30.13 in 7.0 mi Calm Calm - N/A   Clear
2:53 AM 73.9 °F - 73.0 °F 97% 30.10 in 8.0 mi Calm Calm - N/A   Clear
3:23 AM 73.4 °F - 71.6 °F 94% 30.09 in 1.5 mi Calm Calm - N/A   Clear
3:39 AM 73.4 °F - 71.6 °F 94% 30.09 in 7.0 mi Calm Calm - N/A   Clear
3:53 AM 73.0 °F - 72.0 °F 96% 30.09 in 7.0 mi Calm Calm - N/A   Clear
4:53 AM 73.0 °F - 72.0 °F 96% 30.10 in 4.0 mi Calm Calm - N/A   Clear
5:53 AM 73.0 °F - 72.0 °F 96% 30.11 in 7.0 mi Calm Calm - N/A   Clear
6:53 AM 75.0 °F - 73.0 °F 94% 30.11 in 7.0 mi North 3.5 mph - N/A   Clear
7:53 AM 79.0 °F - 73.9 °F 84% 30.12 in 10.0 mi NE 4.6 mph - N/A   Clear
8:53 AM 81.0 °F 86.2 °F 73.9 °F 79% 30.14 in 10.0 mi NE 4.6 mph - N/A   Overcast
9:53 AM 84.0 °F 91.9 °F 75.0 °F 74% 30.14 in 10.0 mi North 6.9 mph - N/A   Mostly Cloudy
10:18 AM 84.2 °F 89.6 °F 71.6 °F 66% 30.15 in 10.0 mi North 9.2 mph - N/A   Overcast
10:53 AM 84.9 °F 90.7 °F 72.0 °F 65% 30.15 in 10.0 mi NNE 8.1 mph - N/A   Mostly Cloudy
11:08 AM 87.8 °F 93.8 °F 71.6 °F 58% 30.14 in 10.0 mi NNE 6.9 mph - N/A   Mostly Cloudy
11:53 AM 88.0 °F 95.6 °F 73.0 °F 61% 30.13 in 10.0 mi NNE 9.2 mph - N/A   Mostly Cloudy
12:40 PM 87.8 °F 93.8 °F 71.6 °F 58% 30.10 in 10.0 mi Variable 5.8 mph - N/A Thunderstorm Partly Cloudy
12:53 PM 89.1 °F 97.0 °F 73.0 °F 59% 30.10 in 10.0 mi ENE 5.8 mph - N/A   Clear
1:53 PM 88.0 °F 96.5 °F 73.9 °F 63% 30.08 in 10.0 mi South 5.8 mph - N/A   Mostly Cloudy
2:53 PM 89.1 °F 99.1 °F 75.0 °F 63% 30.05 in 10.0 mi South 5.8 mph - N/A   Mostly Cloudy
3:53 PM 88.0 °F 95.6 °F 73.0 °F 61% 30.04 in 10.0 mi SSE 9.2 mph - N/A   Scattered Clouds
4:41 PM 84.2 °F 90.9 °F 73.4 °F 70% 30.03 in 10.0 mi SE 8.1 mph - N/A Thunderstorm Clear
4:53 PM 84.0 °F 91.9 °F 75.0 °F 74% 30.03 in 10.0 mi SSE 9.2 mph - N/A   Clear
5:53 PM 84.0 °F 92.6 °F 75.9 °F 76% 30.04 in 10.0 mi SSE 5.8 mph - N/A   Clear
6:53 PM 82.9 °F 90.8 °F 75.9 °F 79% 30.04 in 10.0 mi Calm Calm - N/A   Clear
7:53 PM 80.1 °F 85.8 °F 77.0 °F 90% 30.06 in 10.0 mi Calm Calm - N/A   Clear
8:53 PM 78.1 °F - 75.9 °F 93% 30.07 in 9.0 mi Calm Calm - N/A   Partly Cloudy
9:09 PM 78.8 °F - 75.2 °F 89% 30.07 in 10.0 mi Calm Calm - N/A   Mostly Cloudy
9:19 PM 78.8 °F - 75.2 °F 89% 30.07 in 9.0 mi Calm Calm - N/A   Scattered Clouds
9:53 PM 77.0 °F - 75.0 °F 94% 30.09 in 10.0 mi Calm Calm - N/A   Clear
10:53 PM 77.0 °F - 75.9 °F 96% 30.09 in 10.0 mi Calm Calm - N/A   Clear
11:53 PM 75.0 °F - 73.9 °F 96% 30.09 in 6.0 mi Calm Calm - N/A   Clear